User: anonymous   Login
Location: Mactaquac Provincial Park
(45.9573°N, 66.8897°W)
Time: 00:58:45
(UTC-03:00)
Language:

Cosmos 1766 - Orbit

View from above orbital plane
View from above orbital plane
View from above satellite
View from above satellite

Ground track
Ground track

The orbit data is extracted from the following two-line orbital elements,

1 16881U 86055A   15085.07859884  .00003625  00000-0  23587-3 0  9990
2 16881 082.5075 098.9541 0009688 349.2911 010.8109 15.07664245558646
Epoch (UTC): 26 March 2015 01:53:10
Eccentricity: 0.0009688
inclination: 82.5075°
perigee height: 536 km
apogee height: 550 km
right ascension of ascending node: 98.9541°
argument of perigee: 349.2911°
revolutions per day: 15.07664245
mean anomaly at epoch: 10.8109°
orbit number at epoch: 55864

The dashed part of the orbit path shows where the satellite is in the earth's shadow,  

DLR